[[{"header":{"parameterUnit":"m.s-1","parameterCategory":1,"la1":30.2991,"la2":30.254,"lo1":-89.0895,"lo2":-89.0444,"dy":0.0017,"dx":0.0017,"nx":28,"ny":28,"refTime":"2023-10-11T03:00:00:Z","depth":0,"parameterNumber":2,"parameterNumberName":"U-component_of_WINDS"},"data":[0,0,0,0,0,0,0,0,0,0,0,0,0,0,0,0,0,0,0,0,0,0,0,0,0,0,0,0,0,0,0,0,0,0,0,0,0,0,0,0,0,0,0,0,0,0,0,0,0,0,0,0,0,0,0,0,0,0,-3.2353,-3.2353,0,-3.2402,-3.2403,-3.2404,-3.2329,-3.2327,-3.2324,-3.2322,-3.2373,-3.2376,-3.238,0,0,0,0,0,0,0,0,0,0,0,0,0,-3.2194,-3.2197,-3.2353,-3.2354,-3.2354,-3.2402,-3.2403,-3.2404,-3.233,-3.2327,-3.2323,-3.2321,-3.2371,-3.2376,-3.238,0,0,0,0,0,0,0,0,0,0,0,0,0,-3.2255,-3.2198,-3.2353,-3.2323,-3.2321,-3.2402,-3.2403,-3.2404,-3.233,-3.2327,-3.2323,-3.2319,-3.237,-3.2375,-3.2381,-3.2494,0,0,-3.2398,-3.2401,0,0,0,0,0,0,0,0,-3.2252,-3.2261,-3.2327,-3.2325,-3.2323,-3.2356,-3.2365,-3.2434,-3.2331,-3.2327,-3.2322,-3.2317,-3.237,-3.2375,-3.2393,-3.2496,-3.2498,-3.2399,-3.2402,-3.2404,-3.2406,0,0,0,0,0,0,0,-3.2248,-3.2259,-3.2372,-3.2328,-3.2326,-3.2307,-3.2312,-3.2378,-3.237,-3.2327,-3.2322,-3.2329,-3.2368,-3.2388,-3.2394,-3.2499,-3.2398,-3.2403,-3.2407,-3.2409,-3.2696,-3.27,0,0,0,0,0,0,-3.2247,-3.2256,-3.2371,-3.2374,-3.2277,-3.2313,-3.2318,-3.2349,-3.2369,-3.2368,-3.2332,-3.2325,-3.238,-3.2387,-3.2395,-3.2528,-3.2404,-3.241,-3.2413,-3.2691,-3.2697,-3.2701,0,0,0,0,0,0,-3.2244,-3.2258,-3.2369,-3.2313,-3.2326,-3.232,-3.2356,-3.2352,-3.2372,-3.2372,-3.237,-3.2354,-3.2377,-3.2387,-3.247,-3.2529,-3.2412,-3.2417,-3.2686,-3.2693,-3.2699,-3.2794,0,0,0,0,0,0,-3.224,-3.2257,-3.23,-3.2315,-3.2329,-3.2443,-3.2359,-3.2356,-3.2382,-3.2373,-3.2392,-3.2392,-3.2375,-3.2462,-3.2475,-3.2534,-3.2422,-3.2681,-3.2689,-3.2697,-3.2786,-3.2803,-3.2818,0,0,0,0,0,-3.2234,-3.2325,-3.2303,-3.2317,-3.2383,-3.2446,-3.2454,-3.2433,-3.2387,-3.243,-3.243,-3.2391,-3.252,-3.2471,-3.2485,-3.2547,-3.2677,-3.2687,-3.2696,-3.2779,-3.28,-3.2817,0,0,0,0,0,0,-3.2318,-3.2327,-3.2302,-3.24,-3.2423,-3.2433,-3.2487,-3.2457,-3.2493,-3.2483,-3.2456,-3.2461,-3.2549,-3.2556,-3.2501,-3.2657,-3.2591,-3.2604,-3.2648,-3.2669,-3.2684,-3.268,-3.2427,0,0,0,0,0,-3.2348,-3.2399,-3.2404,-3.249,-3.2503,-3.2493,-3.252,-3.2502,-3.2524,-3.2533,-3.254,-3.2563,-3.2608,-3.2639,-3.2681,-3.2787,-3.2789,-3.2836,-3.2853,-3.2866,-3.2877,-3.2932,-3.2953,-3.2732,-3.2732,-3.2732,0,0,-3.2411,-3.2422,-3.2455,-3.2507,-3.2523,-3.2575,-3.2502,-3.2561,-3.26,-3.2542,-3.262,-3.2626,-3.2649,-3.2744,-3.2786,-3.2753,-3.2939,-3.2878,-3.2888,-3.2892,-3.2944,-3.2965,-3.2984,-3.2739,-3.2738,-3.2737,0,0,-3.2551,-3.2565,-3.2638,-3.2655,-3.2679,-3.2672,-3.269,-3.2705,-3.2706,-3.2783,-3.2741,-3.2787,-3.2866,-3.2885,-3.2905,-3.3052,-3.3017,-3.3067,-3.315,-3.3205,-3.3222,-3.3237,-3.3289,-3.3308,-3.3078,-3.3078,-3.3079,0,-3.2625,-3.2703,-3.2679,-3.2741,-3.2765,-3.2716,-3.2789,-3.2807,-3.2844,-3.2861,-3.2824,-3.2922,-3.2935,-3.3032,-3.3068,-3.3086,-3.3105,-3.3064,-3.3222,-3.3237,-3.325,-3.3299,-3.3319,-3.3084,-3.3083,-3.3083,-3.3082,0,-3.2793,-3.2848,-3.2904,-3.2941,-3.2971,-3.3039,-3.3024,-3.3058,-3.3037,-3.3034,-3.3113,-3.3127,-3.3171,-3.3193,-3.3173,-3.3287,-3.3266,-3.3226,-3.3159,-3.3278,-3.3323,-3.3342,-3.3092,-3.309,-3.3089,-3.3087,0,0,-3.2988,-3.301,-3.3031,-3.3046,-3.3069,-3.3111,-3.3176,-3.3218,-3.3247,-3.3275,-3.3328,-3.3396,-3.3359,-3.3382,-3.3364,-3.3412,-3.3527,-3.3366,-3.3366,-3.3394,-3.3652,-3.3682,-3.3704,-3.3504,-3.3508,-3.3511,-3.365,0,-3.3127,-3.3239,-3.3219,-3.3328,-3.3378,-3.3332,-3.3388,-3.3408,-3.3407,-3.3449,-3.3448,-3.3496,-3.3444,-3.3457,-3.3503,-3.3503,-3.3578,-3.3493,-3.3553,-3.3556,-3.3548,-3.3728,-3.3759,-3.389,-3.3668,-3.3671,-3.3673,0,-3.3304,-3.3337,-3.3451,-3.3466,-3.3486,-3.3537,-3.3574,-3.3615,-3.3637,-3.3632,-3.3658,-3.3631,-3.3695,-3.3629,-3.3717,-3.366,-3.3683,-3.3687,-3.3692,-3.3696,-3.3621,-3.3736,-3.3931,-3.3951,-3.3701,-3.3698,-3.3696,0,-3.3433,-3.3507,-3.3584,-3.3599,-3.3618,-3.3655,-3.3664,-3.3682,-3.3709,-3.3741,-3.3758,-3.3798,-3.382,-3.3851,-3.3835,-3.3788,-3.3926,-3.3858,-3.3924,-3.3925,-3.3955,-3.3953,-3.4156,-3.3972,-3.3972,-3.3971,-3.3971,0,-3.359,-3.3662,-3.3642,-3.369,-3.3768,-3.3744,-3.3823,-3.3827,-3.3843,-3.389,-3.3853,-3.3898,-3.3876,-3.3919,-3.3908,-3.3982,-3.3993,-3.3991,-3.3986,-3.3993,-3.3994,-3.4008,-3.3998,-3.3976,-3.3975,-3.3974,-3.3973,0,-3.3748,-3.3737,-3.3818,-3.383,-3.3834,-3.3891,-3.39,-3.3945,-3.3941,-3.4001,-3.4014,-3.4008,-3.4057,-3.4045,-3.4099,-3.4091,-3.4185,-3.417,-3.4177,-3.4173,-3.424,-3.4233,-3.4458,-3.4486,-3.4285,-3.4287,-3.4288,0,-3.3848,-3.3902,-3.3918,-3.3947,-3.3959,-3.4007,-3.4033,-3.4012,-3.4042,-3.407,-3.4111,-3.4157,-3.4192,-3.4273,-3.4274,-3.4315,-3.43,-3.4376,-3.4306,-3.4311,-3.43,-3.4296,-3.4301,-3.4389,-3.4392,-3.4394,-3.4395,0,-3.4027,-3.4019,-3.4059,-3.4097,-3.413,-3.4159,-3.4185,-3.4211,-3.4192,-3.4227,-3.4276,-3.4304,-3.4359,-3.4405,-3.4442,-3.4452,-3.4421,-3.4417,-3.4435,-3.4442,-3.4444,-3.4443,-3.4214,-3.4412,-3.441,-3.4409,-3.4408,-3.4408,-3.4158,-3.4203,-3.4222,-3.4267,-3.4284,-3.4309,-3.4351,-3.4352,-3.4393,-3.4436,-3.4421,-3.4478,-3.4497,-3.4545,-3.4559,-3.4603,-3.4574,-3.46,-3.4606,-3.4612,-3.462,-3.4437,-3.461,-3.4609,-3.4609,-3.4609,-3.4608,0,-3.4335,-3.4344,-3.4386,-3.4423,-3.4459,-3.4426,-3.4452,-3.4484,-3.4535,-3.4556,-3.4591,-3.4648,-3.4693,-3.4696,-3.4738,-3.4772,-3.4759,-3.4784,-3.4781,-3.4783,-3.4644,-3.4624,-3.4794,-3.4794,-3.4794,-3.4794,-3.4794,-3.4794,-3.443,-3.4505,-3.4499,-3.4581,-3.459,-3.4645,-3.4663,-3.4685,-3.4702,-3.4767,-3.4803,-3.4806,-3.482,-3.4862,-3.4901,-3.4901,-3.4917,-3.4948,-3.4942,-3.4812,-3.4793,-3.4776,-3.4757,-3.4952,-3.4952,-3.5078,-3.5079,-3.508]},{"header":{"parameterUnit":"m.s-1","parameterCategory":1,"la1":30.2991,"la2":30.254,"lo1":-89.0895,"lo2":-89.0444,"dy":0.0017,"dx":0.0017,"nx":28,"ny":28,"refTime":"2023-10-11T03:00:00:Z","depth":0,"parameterNumber":3,"parameterNumberName":"V-component_of_WINDS"},"data":[0,0,0,0,0,0,0,0,0,0,0,0,0,0,0,0,0,0,0,0,0,0,0,0,0,0,0,0,0,0,0,0,0,0,0,0,0,0,0,0,0,0,0,0,0,0,0,0,0,0,0,0,0,0,0,0,0,0,0.9199,0.9199,0,0.9216,0.9216,0.9216,0.9175,0.9174,0.9173,0.9172,0.9186,0.9188,0.9189,0,0,0,0,0,0,0,0,0,0,0,0,0,0.9131,0.9132,0.9199,0.9199,0.9199,0.9216,0.9216,0.9216,0.9176,0.9174,0.9173,0.9171,0.9186,0.9187,0.9189,0,0,0,0,0,0,0,0,0,0,0,0,0,0.9155,0.9133,0.9199,0.9181,0.918,0.9215,0.9216,0.9216,0.9176,0.9174,0.9172,0.917,0.9185,0.9187,0.919,0.9242,0,0,0.9197,0.9198,0,0,0,0,0,0,0,0,0.9154,0.9158,0.9184,0.9183,0.9181,0.9192,0.9197,0.9225,0.9176,0.9177,0.9172,0.9169,0.9189,0.9191,0.9198,0.9243,0.9244,0.9197,0.9198,0.9199,0.92,0,0,0,0,0,0,0,0.9152,0.9157,0.9205,0.9184,0.9183,0.9172,0.9173,0.9202,0.9194,0.9177,0.9174,0.9177,0.9188,0.9196,0.9198,0.9244,0.9197,0.9199,0.92,0.9201,0.9333,0.9335,0,0,0,0,0,0,0.9153,0.9156,0.9205,0.9206,0.9163,0.9175,0.9176,0.919,0.9193,0.9192,0.9179,0.9175,0.9193,0.9196,0.9199,0.9261,0.9199,0.9202,0.9203,0.9331,0.9333,0.9335,0,0,0,0,0,0,0.9152,0.9158,0.9204,0.918,0.9185,0.9178,0.9194,0.9191,0.9199,0.9194,0.9192,0.9188,0.9192,0.9195,0.9232,0.926,0.9203,0.9205,0.9328,0.9331,0.9334,0.9385,0,0,0,0,0,0,0.915,0.9158,0.9178,0.9181,0.9187,0.9238,0.9196,0.9193,0.9204,0.9199,0.9203,0.9202,0.919,0.9229,0.9234,0.9263,0.9207,0.9326,0.933,0.9333,0.9381,0.9389,0.9397,0,0,0,0,0,0.9148,0.9191,0.9179,0.9185,0.9212,0.924,0.9243,0.9229,0.9206,0.9226,0.9223,0.9202,0.9257,0.9233,0.9239,0.9268,0.9324,0.9328,0.9333,0.9377,0.9388,0.9397,0,0,0,0,0,0,0.919,0.9191,0.9178,0.9223,0.9232,0.9233,0.9257,0.9241,0.9256,0.9251,0.9233,0.9234,0.9274,0.9275,0.9248,0.932,0.9286,0.9292,0.9317,0.9328,0.9336,0.9334,0.9209,0,0,0,0,0,0.9205,0.9228,0.9227,0.9267,0.9273,0.9265,0.9276,0.9265,0.9273,0.9276,0.9276,0.9283,0.9302,0.9315,0.9332,0.9381,0.9381,0.9404,0.9412,0.9419,0.9424,0.945,0.946,0.9351,0.9351,0.9351,0,0,0.9235,0.9239,0.9254,0.9276,0.9281,0.9305,0.9268,0.9294,0.9311,0.928,0.9314,0.9315,0.9322,0.9365,0.9384,0.9367,0.9455,0.9425,0.943,0.9432,0.9456,0.9466,0.9475,0.9354,0.9353,0.9353,0,0,0.9303,0.9308,0.9342,0.9349,0.9358,0.9352,0.9361,0.9365,0.9364,0.9399,0.9375,0.9396,0.9429,0.9435,0.9443,0.9515,0.9495,0.9521,0.9562,0.9588,0.9597,0.9604,0.9629,0.9639,0.9526,0.9526,0.9526,0,0.9339,0.9375,0.9361,0.939,0.94,0.9374,0.9409,0.9415,0.9429,0.9437,0.9418,0.946,0.9463,0.9507,0.9525,0.9532,0.954,0.9519,0.9597,0.9604,0.9611,0.9635,0.9644,0.9529,0.9529,0.9529,0.9528,0,0.9419,0.9444,0.947,0.9486,0.9499,0.953,0.9522,0.9537,0.9525,0.9522,0.9558,0.9561,0.9579,0.9589,0.9577,0.9631,0.9621,0.96,0.9565,0.9625,0.9647,0.9656,0.9533,0.9532,0.9532,0.9531,0,0,0.9511,0.9521,0.953,0.9537,0.9546,0.9565,0.9595,0.9614,0.9627,0.9638,0.9662,0.9692,0.9673,0.9682,0.9671,0.9694,0.975,0.967,0.967,0.9684,0.981,0.9825,0.9836,0.9738,0.974,0.9741,0.9809,0,0.9578,0.9631,0.962,0.9672,0.9695,0.9671,0.9697,0.9706,0.9704,0.9722,0.972,0.9741,0.9714,0.972,0.9741,0.9739,0.9775,0.9734,0.976,0.9761,0.9758,0.9847,0.9863,0.9927,0.9817,0.9819,0.982,0,0.9662,0.9677,0.9731,0.9737,0.9747,0.9771,0.9787,0.9806,0.9814,0.9811,0.9822,0.9808,0.9837,0.9804,0.9844,0.9817,0.9827,0.9827,0.983,0.9831,0.9793,0.985,0.9947,0.9956,0.9833,0.9832,0.9831,0,0.9724,0.9758,0.9795,0.9802,0.981,0.9827,0.9831,0.9838,0.985,0.9864,0.9872,0.9889,0.9899,0.9912,0.9902,0.9879,0.9944,0.991,0.9942,0.9942,0.9956,0.9955,1.0055,0.9964,0.9964,0.9964,0.9964,0,0.9798,0.9832,0.9823,0.9845,0.9883,0.9871,0.9908,0.9909,0.9916,0.9938,0.9918,0.9939,0.9926,0.9946,0.9938,0.9973,0.9977,0.9975,0.9972,0.9976,0.9977,0.9982,0.9977,0.9966,0.9966,0.9965,0.9965,0,0.9873,0.9868,0.9907,0.9912,0.9914,0.9941,0.9945,0.9966,0.9964,0.9992,0.9998,0.9993,1.0016,1.0008,1.0031,1.0026,1.007,1.0062,1.0068,1.0065,1.0098,1.0094,1.0204,1.0218,1.0119,1.012,1.012,0,0.992,0.9946,0.9955,0.9969,0.9974,0.9997,1.001,0.9999,1.0013,1.0026,1.0045,1.0066,1.0082,1.0119,1.0117,1.0135,1.0127,1.0165,1.013,1.0133,1.0127,1.0125,1.0128,1.0171,1.0172,1.0173,1.0174,0,1.0005,1.0002,1.0021,1.004,1.0056,1.007,1.0083,1.0095,1.0085,1.0102,1.0125,1.0138,1.0163,1.0184,1.02,1.0204,1.0187,1.0185,1.0193,1.0197,1.0199,1.0198,1.0086,1.0182,1.0181,1.0181,1.018,1.018,1.0067,1.0089,1.0099,1.0121,1.013,1.0142,1.0162,1.0163,1.0182,1.0202,1.0195,1.0222,1.0231,1.0251,1.0257,1.0278,1.0263,1.0275,1.0278,1.0281,1.0285,1.0197,1.0281,1.0281,1.028,1.028,1.028,0,1.015,1.0156,1.0177,1.0195,1.0213,1.0198,1.0211,1.0226,1.0251,1.0261,1.0278,1.0305,1.0325,1.0326,1.0345,1.0361,1.0354,1.0366,1.0365,1.0366,1.0297,1.0288,1.0372,1.0372,1.0372,1.0372,1.0372,1.0372,1.0195,1.0232,1.023,1.0271,1.0276,1.0303,1.0312,1.0323,1.0331,1.0362,1.038,1.0381,1.0387,1.0407,1.0425,1.0424,1.0432,1.0447,1.0444,1.038,1.037,1.0362,1.0353,1.0449,1.0449,1.0511,1.0511,1.0512]}]]